Location: Erp
(42.9417°N, 1.2009°E)
Time: 22:28:01
(UTC+00:00)

Cosmos 1959 Rocket - Pass Details

Date: 30 April 2026
Orbit: 946 x 997 km, 82.9° (Epoch: 15 May)

Event Time Altitude Azimuth Distance (km) Brightness Sun altitude
Rises 03:48:32 0° 11° (N) 3,642 8.2 -11.0°
Reaches altitude 10° 03:54:07 10° 52° (NE) 2,679 8.4 -10.1°
Maximum altitude 03:54:58 10° 60° (ENE) 2,656 8.4 -10.0°
Drops below altitude 10° 03:55:49 10° 68° (ENE) 2,674 8.4 -9.9°
Sets 04:01:19 0° 109° (ESE) 3,608 8.1 -9.0°
